Regional Weather Roundup
Issued by NWS

Home | Current Version | Previous Version | Graphics & Text | Print | Product List | Glossary On
Versions: 1 2 3 4 5 6 7 8 9 10 11 12 13 14 15 16 17 18 19 20 21 22 23 24 25 26 27 28 29 30 31 32 33 34 35 36 37 38 39 40 41 42 43 44 45 46 47 48 49 50
000
ASUS43 KMPX 040810
RWRMN
WEATHER ROUNDUP FOR MINNESOTA
NATIONAL WEATHER SERVICE TWIN CITIES/CHANHASSEN MN
300 AM CDT FRI SEP 04 2015


NOTE: "FAIR" INDICATES FEW OR NO CLOUDS BELOW 12,000 FEET WITH NO
SIGNIFICANT WEATHER AND/OR OBSTRUCTIONS TO VISIBILITY. N/A MEANS
CURRENT SKY AND/OR WEATHER CONDITIONS ARE NOT AVAILABLE.

MNZ060>063-068>070-040900-
   Twin Cities Metro

CITY           SKY/WX    TMP DP  RH WIND       PRES   REMARKS
TWIN CITIES    CLEAR     72  68  87 SE12      29.91R
ST PAUL        CLEAR     71  68  90 SE10      29.91S
CRYSTAL        CLEAR     74  68  81 SE8       29.89S
BLAINE         CLEAR     73  72  94 SE9G16    29.91S
LAKEVILLE      CLEAR     68  68 100 E3        29.91S FOG
EDEN PRAIRIE   CLEAR     73  70  90 SE9       29.89S
SOUTH ST PAUL  CLEAR     71  67  88 SE5       29.92S
LAKE ELMO      FAIR      70  68  94 E5        29.94S
$$
MNZ001>005-007-008-013>017-022>024-027-028-040900-
   Northwest Minnesota

CITY           SKY/WX    TMP DP  RH WIND       PRES   REMARKS
BEMIDJI        CLOUDY    68  65  90 SE9       29.89F
HALLOCK        MOCLDY    75  72  88 SE8       29.78S
ROSEAU         CLOUDY    70  64  83 S7        29.83S
WARROAD        CLOUDY    72  66  83 S6        29.85R
THIEF RVR FALL CLOUDY    72  70  94 SE10      29.82F
CROOKSTON      MOCLDY    73  72  94 SE7       29.81R
FOSSTON        MOCLDY    70  66  88 SE9       29.85S
DETROIT LAKES  CLOUDY    73  70  88 SE13      29.86S
MOORHEAD       PTCLDY    75  72  88 SE9       29.79S
PARK RAPIDS    MOCLDY    71  66  84 E7        29.88F
MAHNOMEN       PTSUNNY   73  70  89 SE8       29.83S
$$
MNZ006-009>011-018-025>026-040900-
   North Central Minnesota

CITY           SKY/WX    TMP DP  RH WIND       PRES   REMARKS
BAUDETTE       LGT RAIN  66  62  87 SE16      29.88F
FLAG ISLAND    MOCLDY    70  64  83 SE22      29.85S
INTL FALLS     PTCLDY    56  53  90 SE7       29.94F
WASKISH        MOCLDY    66  64  94 E6        29.90S
BIG FORK       PTCLDY    61  55  82 SE5       29.95F
LONGVILLE      PTCLDY    63  61  94 E3        29.92F
GRAND RAPIDS     N/A     59  54  82 SE7       29.96S
CRANE LAKE     CLEAR     50  48  93 CALM      29.99F
ORR            CLEAR     57  52  82 SE5       29.95F
COOK           CLEAR     54  52  94 E3        29.99S
WALKER         CLOUDY    66  64  91 E5        29.91S
$$
MNZ012-019>021-037-040900-
   Northeast Minnesota

CITY           SKY/WX    TMP DP  RH WIND       PRES   REMARKS
DULUTH         CLEAR     56  53  90 E9        30.00R
ELY            CLEAR     50  48  93 CALM      30.01S
HIBBING        CLEAR     51  49  92 CALM      29.99S
EVELETH        CLEAR     54  52  94 CALM      30.00S
DULUTH HARBOR  CLEAR     59  57  94 NE7       30.00S
TWO HARBORS    CLEAR     59  54  82 N3        29.99S
SILVER BAY     CLEAR     57  55  94 CALM      30.00S
GRAND MARAIS     N/A     60  57  89 NE3       30.02S
G MARAIS ARPRT CLEAR     59  54  82 E6        30.06F
$$
MNZ029>031-032-039>041-046>048-054>057-064-040900-
   West Central Minnesota

CITY           SKY/WX    TMP DP  RH WIND       PRES   REMARKS
FERGUS FALLS   MOCLDY    75  73  94 SE13      29.80F
WHEATON        PTCLDY    72  70  94 E9        29.80F FOG
MORRIS         MOCLDY    75  73  94 SE12      29.81S FOG
ALEXANDRIA     CLOUDY    72  71  97 SE15      29.87F
ELBOW LAKE     FAIR      73  72  96 SE8       29.82F
WADENA         PTCLDY    70  66  88 SE8       29.87S
GLENWOOD       CLOUDY    72  72 100 E9        29.86F FOG
APPLETON       MOCLDY    75  72  88 SE9       29.80S
BENSON         MOCLDY    75  72  88 SE8       29.82F
ORTONVILLE     PTCLDY    75  72  88 SE8       29.79F
MADISON        PTCLDY    73  72  94 SE8       29.80F
WILLMAR        FAIR      73  73 100 SE8       29.86S FOG
$$
MNZ033>034-036-042>043-049>051-058-059-040900-
   Central Minnesota

CITY           SKY/WX    TMP DP  RH WIND       PRES   REMARKS
ST CLOUD       FAIR      70  68  93 SE7       29.89S
SAUK CENTRE    PTSUNNY   70  69  96 E8        29.87F
PAYNESVILLE    PTCLDY    73  72  97 E9        29.88S
AITKIN         MOCLDY    64  59  82 SE5       29.92F
PINE RIVER     CLOUDY    64  64 100 E6        29.94F
BRAINERD       PTCLDY    68  65  90 VRB5      29.91F
STAPLES        PTCLDY    68  66  94 E6        29.89S
LONG PRAIRIE   FAIR      68  66  94 E8        29.88F
LITTLE FALLS   PTCLDY    70  64  83 SE6       29.89S
LITCHFIELD     CLEAR     73  73 100 SE7       29.88S
BUFFALO        CLEAR     72  68  88 E7        29.90S
MAPLE LAKE     CLEAR     72  71  95 E5        29.90S
$$
MNZ037-044-045-052-053-040900-
   East Central Minnesota

CITY           SKY/WX    TMP DP  RH WIND       PRES   REMARKS
PRINCETON      CLEAR     72  66  83 E7        29.91S
MORA           CLEAR     64  63  94 E3        29.94F
CAMBRIDGE      CLEAR     72  63  73 SE6       29.90F
RUSH CITY      PTCLDY    68  65  90 E5        29.93F
MOOSE LAKE     CLOUDY    55  54  94 NE5       29.96S
HINCKLEY       CLOUDY    66  66 100 NE3       29.95S
CLOQUET        CLEAR     55  54  94 E5        29.99S
MCGREGOR       PTCLDY    59  59 100 E8        29.95F
$$
MNZ071>073-080-081-089-090-097-098-040900-
   Southwest Minnesota

CITY           SKY/WX    TMP DP  RH WIND       PRES   REMARKS
MONTEVIDEO     MOCLDY    73  73 100 S8        29.83F
GRANITE FALLS  MOCLDY    75  73  93 SE8       29.84S
CANBY          PTCLDY    72  70  95 SE7       29.82S
MARSHALL       PTCLDY    72  68  88 SE10      29.83F
REDWOOD FALLS  PTCLDY    75  72  90 SE8       29.84S
OLIVIA         PTCLDY    72  70  94 SE7       29.84S
PIPESTONE      PTCLDY    73  70  88 S12       29.84S
WINDOM         PTCLDY    73  70  88 SE6       29.87S
WORTHINGTON    PTCLDY    73  66  78 S10       29.87R
JACKSON        PTCLDY    73  70  88 S9        29.88F
TRACY          MOCLDY    74  72  92 S9        29.84F
SLAYTON        MOCLDY    71  71 100 CALM      29.87S
$$
MNZ065>067-074>077-082>085-091>093-040900-
   South Central Minnesota

CITY           SKY/WX    TMP DP  RH WIND       PRES   REMARKS
MANKATO        CLEAR     73  72  94 SE8       29.89S
NEW ULM        CLEAR     73  72  94 SE8       29.86S
ST JAMES       PTCLDY    73  72  94 SE7       29.88R
FAIRMONT       PTCLDY    73  64  73 S7        29.88S
GLENCOE        CLEAR     74  73  99 E6        29.88R FOG
FARIBAULT      CLEAR     73  72  94 SE6       29.92S
OWATONNA       CLEAR     73  70  88 SE8       29.92R
WASECA         CLEAR     72  70  94 SE7       29.91S
ALBERT LEA     CLEAR     73  72  94 S5        29.92S
$$
MNZ078>079-086>088-094>096-040900-
   Southeast Minnesota

CITY           SKY/WX    TMP DP  RH WIND       PRES   REMARKS
ROCHESTER      CLEAR     72  71  97 SE8       29.95S FOG
RED WING       CLEAR     72  66  83 E8        29.92S
STANTON        CLEAR     74  69  86 SE7       29.90S
DODGE CENTER   CLEAR     72  72 100 SE6       29.94S FOG
WINONA         PTCLDY    72  66  83 SE7       29.96S
AUSTIN         CLEAR     73  70  88 SE5       29.93S
PRESTON        PTCLDY    73  71  94 E6        29.96S FOG
$$
ABBREVIATIONS USED IN REMARKS
   TC - TEMPERATURES IN CELSIUS
  WCI - WIND CHILL INDEX
   HX - HEAT INDEX
  VSB - VISIBILITY
$$


USA.gov is the U.S. government's official web portal to all federal, state and local government web resources and services.